Tracking 35237 objects as of 6-Sep-2026
HD Live streaming from Space Station
objects crossing your sky now

STARLINK 1062


STARLINK 1062 is no longer on orbit
STARLINK 1062 is classified as:


NORAD ID: 44767
Int'l Code: 2019-074BG
Launch date: November 11, 2019
Source: United States (US)
Launch site: AIR FORCE EASTERN TEST RANGE (AFETR)
Decay date: 2025-03-29
Your satellite tracking list
Your tracking list is empty




NASA's NSSDC Master Catalog

Two Line Element Set (TLE):
1 44767U 19074BG  25088.47902925  .18638896  12546-4  34241-3 0  9998
2 44767  53.0164 273.9060 0007595 264.4530 184.5478 16.47040245297206
Source of the keplerian elements: AFSPC